Home   Weather   Goslar   Past weeks

Flag for Germany Past Weather in Goslar, Lower Saxony, Germany — Yesterday and Last 2 Weeks

Now
37 °F

Clear.


Feels Like: 35 °F
Forecast: 32 / 48 °F
Wind: 3 mph from Southwest

Location: Hannover

Current Time: Apr 28, 2017 at 3:06:42 am

Latest Report: Apr 28, 2017 at 2:20 am


Visibility: 10 mi

Pressure: 29.95 "Hg

Humidity: 81%

Dew Point: 32 °F

Location of GoslarLocation

Past Weather in Goslar — Graph

°F

Goslar Temperature Yesterday

Maximum temperature yesterday: 52 °F (at 2:50 pm)
Minimum temperature yesterday: 28 °F (at 5:50 am)
Average temperature yesterday: 42 °F

High & Low Weather Summary for the Past Weeks

 TemperatureHumidityPressure
High55 °F (Apr 21, 1:20 pm)100% (Apr 17, 3:50 am)30.63 "Hg (Apr 17, 3:50 am)
Low25 °F (Apr 20, 4:50 am)37% (Apr 20, 4:50 pm)29.62 "Hg (Apr 25, 3:20 am)
Average43 °F73%30.07 "Hg
* Reported Apr 13 1:20 am — Apr 28 1:50 am, Goslar, Weather by CustomWeather, © 2017

Note: Actual official high and low records may vary slightly from our data, if they occured in-between our weather recording intervals... More about our weather records

Advertising

Goslar Weather History for the Previous 24 Hours

Scroll right to see more
 ConditionsComfort  
Time TempWeatherWind HumidityBarometerVisibility
1:50 am
Fri, Apr 28
36 °FClear.2 mph87%29.95 "Hg10 mi
1:20 am37 °FClear.2 mph81%29.95 "Hg10 mi
12:50 am43 °FClear.5 mph66%29.95 "Hg10 mi
12:20 am43 °FClear.3 mph66%29.95 "Hg10 mi
11:50 pm
Thu, Apr 27
41 °FPassing clouds.3 mph76%29.95 "HgN/A
11:20 pm41 °FClear.2 mph76%29.95 "Hg10 mi
10:50 pm43 °FClear.2 mph61%29.95 "Hg10 mi
10:20 pm41 °FClear.2 mph66%29.98 "Hg10 mi
9:50 pm41 °FClear.3 mph66%29.98 "Hg10 mi
9:20 pm43 °FClear.2 mph61%29.95 "Hg10 mi
8:50 pm45 °FClear.2 mph53%29.95 "Hg10 mi
8:20 pm45 °FSunny.7 mph57%29.95 "Hg10 mi
7:50 pm48 °FSunny.7 mph46%29.95 "Hg10 mi
7:20 pm50 °FSunny.8 mph47%29.95 "Hg10 mi
6:50 pm50 °FPassing clouds.8 mph40%29.95 "HgN/A
6:20 pm52 °FPassing clouds.9 mph41%29.95 "HgN/A
5:50 pm50 °FPassing clouds.13 mph43%29.95 "HgN/A
5:20 pm50 °FSunny.9 mph40%29.95 "Hg10 mi
4:50 pm52 °FScattered showers. Scattered clouds.10 mph38%29.95 "HgN/A
4:20 pm50 °FScattered showers. Scattered clouds.9 mph40%29.95 "HgN/A
3:50 pm50 °FScattered showers. Scattered clouds.10 mph43%29.95 "HgN/A
2:50 pm52 °FScattered showers. Passing clouds.9 mph41%29.95 "HgN/A
2:20 pm48 °FScattered showers. Scattered clouds.9 mph46%29.95 "HgN/A
1:50 pm50 °FScattered showers. Passing clouds.8 mph50%29.95 "HgN/A
1:20 pm50 °FScattered showers. Scattered clouds.10 mph47%29.98 "HgN/A
12:50 pm48 °FScattered showers. Passing clouds.10 mph54%29.98 "HgN/A
12:20 pm46 °FScattered showers. Scattered clouds.13 mph57%29.98 "HgN/A
11:50 am48 °FScattered showers. Scattered clouds.10 mph54%29.98 "HgN/A
11:20 am48 °FScattered showers. Scattered clouds.9 mph54%29.98 "HgN/A
10:50 am46 °FScattered clouds.7 mph62%29.98 "HgN/A
10:20 am45 °FScattered clouds.8 mph71%29.98 "HgN/A
9:50 am45 °FPassing clouds.7 mph71%29.98 "HgN/A
9:20 am43 °FPassing clouds.7 mph76%29.98 "HgN/A
8:50 am41 °FPassing clouds.6 mph76%29.98 "HgN/A
8:20 am39 °FSunny.5 mph87%29.98 "Hg10 mi
7:50 am36 °FPassing clouds.6 mph93%29.98 "HgN/A
6:50 am32 °FSunny.2 mph93%29.95 "Hg10 mi
6:20 am30 °FFog.2 mph93%29.95 "HgN/A
5:50 am28 °FFog.3 mph100%29.95 "HgN/A
5:20 am30 °FFog.3 mph100%29.95 "HgN/A
4:50 am30 °FClear.5 mph93%29.95 "Hg10 mi
4:20 am30 °FClear.2 mph93%29.95 "Hg10 mi
3:50 am30 °FClear.3 mph93%29.95 "Hg10 mi
3:20 am32 °FClear.3 mph100%29.95 "Hg10 mi
Weather by CustomWeather, © 2017

See weather overviewHow to use our weather pages